| time (UTC) | temp F | wind direction | speed MPH | gust MPH | rain 1hr in | rain 24hr in | rain mn in | humidity % | barometer mb |
| 20260902103935 | 80 | 206 | 1.0 | 1.0 | 0.00 | 0.00 | 0.00 | 76 | 1016.3 |
| 20260902103430 | 80 | 193 | 3.0 | 4.0 | 0.00 | 0.00 | 0.00 | 75 | 1016.4 |
| 20260902102925 | 80 | 186 | 1.0 | 2.0 | 0.00 | 0.00 | 0.00 | 75 | 1016.4 |
| 20260902102422 | 80 | 205 | 1.0 | 2.0 | 0.00 | 0.00 | 0.00 | 75 | 1016.5 |
| 20260902101918 | 80 | 196 | 2.0 | 2.0 | 0.00 | 0.00 | 0.00 | 75 | 1016.4 |
| 20260902101412 | 80 | 199 | 2.0 | 2.0 | 0.00 | 0.00 | 0.00 | 75 | 1016.3 |
| 20260902100912 | 80 | 213 | 2.0 | 2.0 | 0.00 | 0.00 | 0.00 | 75 | 1016.2 |
| 20260902100406 | 80 | 224 | 1.0 | 2.0 | 0.00 | 0.00 | 0.00 | 75 | 1016.3 |
| 20260902095900 | 80 | 215 | 2.0 | 3.0 | 0.00 | 0.00 | 0.00 | 75 | 1016.3 |
| 20260902095354 | 80 | 192 | 1.0 | 2.0 | 0.00 | 0.00 | 0.00 | 76 | 1016.5 |
| 20260902094849 | 80 | 201 | 3.0 | 3.0 | 0.00 | 0.00 | 0.00 | 76 | 1016.4 |
| 20260902094345 | 80 | 226 | 3.0 | 3.0 | 0.00 | 0.00 | 0.00 | 76 | 1016.5 |
| 20260902093844 | 80 | 230 | 3.0 | 3.0 | 0.00 | 0.00 | 0.00 | 77 | 1016.4 |
| 20260902093340 | 80 | 222 | 0.0 | 0.0 | 0.00 | 0.00 | 0.00 | 77 | 1016.4 |
| 20260902092838 | 80 | 208 | 0.0 | 0.0 | 0.00 | 0.00 | 0.00 | 78 | 1016.3 |
| 20260902092334 | 80 | 208 | 0.0 | 0.0 | 0.00 | 0.00 | 0.00 | 78 | 1016.5 |
| 20260902091829 | 80 | 199 | 1.0 | 1.0 | 0.00 | 0.00 | 0.00 | 78 | 1016.5 |
| 20260902091325 | 80 | 183 | 1.0 | 1.0 | 0.00 | 0.00 | 0.00 | 78 | 1016.4 |
| 20260902090821 | 80 | 183 | 1.0 | 1.0 | 0.00 | 0.00 | 0.00 | 78 | 1016.4 |
| 20260902090320 | 80 | 205 | 2.0 | 2.0 | 0.00 | 0.00 | 0.00 | 78 | 1016.4 |
| 20260902085820 | 80 | 163 | 3.0 | 3.0 | 0.00 | 0.00 | 0.00 | 78 | 1016.5 |
| 20260902085315 | 80 | 161 | 3.0 | 3.0 | 0.00 | 0.00 | 0.00 | 77 | 1016.5 |
| 20260902084810 | 80 | 150 | 2.0 | 2.0 | 0.00 | 0.00 | 0.00 | 77 | 1016.5 |
| 20260902084307 | 80 | 146 | 2.0 | 2.0 | 0.00 | 0.00 | 0.00 | 77 | 1016.4 |
| 20260902083801 | 80 | 130 | 0.0 | 0.0 | 0.00 | 0.00 | 0.00 | 77 | 1016.4 |
| 20260902083256 | 80 | 173 | 0.0 | 0.0 | 0.00 | 0.00 | 0.00 | 77 | 1016.6 |
| 20260902082751 | 80 | 164 | 0.0 | 0.0 | 0.00 | 0.00 | 0.00 | 77 | 1016.8 |
| 20260902082248 | 80 | 157 | 1.0 | 1.0 | 0.00 | 0.00 | 0.00 | 77 | 1016.7 |
| 20260902081743 | 80 | 121 | 1.0 | 2.0 | 0.00 | 0.00 | 0.00 | 76 | 1016.5 |
| 20260902081239 | 80 | 110 | 3.0 | 3.0 | 0.00 | 0.00 | 0.00 | 76 | 1016.8 |
| 20260902080734 | 80 | 132 | 1.0 | 1.0 | 0.00 | 0.00 | 0.00 | 76 | 1016.8 |
| 20260902080231 | 80 | 87 | 0.0 | 1.0 | 0.00 | 0.00 | 0.00 | 76 | 1016.7 |
| 20260902075730 | 80 | 88 | 2.0 | 2.0 | 0.00 | 0.00 | 0.00 | 75 | 1016.9 |
| 20260902075226 | 80 | 83 | 2.0 | 2.0 | 0.00 | 0.00 | 0.00 | 75 | 1016.8 |
| 20260902074726 | 80 | 86 | 0.0 | 0.0 | 0.00 | 0.00 | 0.00 | 75 | 1016.8 |
| 20260902074222 | 81 | 57 | 2.0 | 2.0 | 0.00 | 0.00 | 0.00 | 74 | 1016.8 |
| 20260902073717 | 81 | 55 | 1.0 | 2.0 | 0.00 | 0.00 | 0.00 | 74 | 1017.0 |
| 20260902073213 | 81 | 98 | 1.0 | 1.0 | 0.00 | 0.00 | 0.00 | 73 | 1016.8 |
| 20260902072709 | 81 | 120 | 0.0 | 1.0 | 0.00 | 0.00 | 0.00 | 73 | 1016.9 |
| 20260902072205 | 81 | 83 | 1.0 | 2.0 | 0.00 | 0.00 | 0.00 | 73 | 1016.9 |
| 20260902071701 | 81 | 95 | 3.0 | 3.0 | 0.00 | 0.00 | 0.00 | 73 | 1016.7 |
| 20260902071155 | 81 | 84 | 0.0 | 0.0 | 0.00 | 0.00 | 0.00 | 73 | 1016.8 |
| 20260902070652 | 81 | 80 | 4.0 | 4.0 | 0.00 | 0.00 | 0.00 | 72 | 1017.0 |
| 20260902070151 | 81 | 68 | 2.0 | 2.0 | 0.00 | 0.00 | 0.00 | 72 | 1017.0 |
| 20260902065650 | 82 | 77 | 1.0 | 1.0 | 0.00 | 0.00 | 0.00 | 72 | 1016.9 |
| 20260902065146 | 82 | 127 | 0.0 | 0.0 | 0.00 | 0.00 | 0.00 | 72 | 1017.1 |
| 20260902064641 | 82 | 52 | 1.0 | 1.0 | 0.00 | 0.00 | 0.00 | 71 | 1017.0 |
| 20260902064137 | 82 | 66 | 2.0 | 2.0 | 0.00 | 0.00 | 0.00 | 71 | 1017.0 |
| 20260902063632 | 82 | 105 | 0.0 | 1.0 | 0.00 | 0.00 | 0.00 | 71 | 1017.0 |
| 20260902063127 | 82 | 43 | 1.0 | 2.0 | 0.00 | 0.00 | 0.00 | 71 | 1017.0 |
| 20260902062626 | 82 | 50 | 2.0 | 3.0 | 0.00 | 0.00 | 0.00 | 71 | 1017.2 |
| 20260902062121 | 82 | 39 | 2.0 | 3.0 | 0.00 | 0.00 | 0.00 | 71 | 1017.0 |
| 20260902061620 | 83 | 80 | 1.0 | 2.0 | 0.00 | 0.00 | 0.00 | 70 | 1016.9 |
| 20260902061116 | 83 | 65 | 1.0 | 1.0 | 0.00 | 0.00 | 0.00 | 70 | 1016.9 |
| 20260902060613 | 83 | 83 | 0.0 | 1.0 | 0.00 | 0.00 | 0.00 | 69 | 1017.0 |
| 20260902060109 | 84 | 81 | 4.0 | 4.0 | 0.00 | 0.00 | 0.00 | 69 | 1017.0 |
| 20260902055604 | 84 | 107 | 2.0 | 2.0 | 0.00 | 0.00 | 0.00 | 69 | 1016.9 |
| 20260902055059 | 84 | 103 | 2.0 | 3.0 | 0.00 | 0.00 | 0.00 | 69 | 1017.1 |
| 20260902054554 | 84 | 85 | 2.0 | 2.0 | 0.00 | 0.00 | 0.00 | 68 | 1017.0 |
| 20260902054050 | 84 | 127 | 2.0 | 3.0 | 0.00 | 0.00 | 0.00 | 68 | 1017.0 |
| 20260902053544 | 84 | 128 | 0.0 | 0.0 | 0.00 | 0.00 | 0.00 | 67 | 1016.8 |
| 20260902053039 | 84 | 92 | 1.0 | 2.0 | 0.00 | 0.00 | 0.00 | 67 | 1016.7 |
| 20260902052533 | 84 | 74 | 4.0 | 6.0 | 0.00 | 0.00 | 0.00 | 67 | 1016.6 |
| 20260902052029 | 85 | 71 | 4.0 | 4.0 | 0.00 | 0.00 | 0.00 | 67 | 1016.7 |
| 20260902051529 | 85 | 126 | 2.0 | 2.0 | 0.00 | 0.00 | 0.00 | 66 | 1016.6 |
| 20260902051028 | 85 | 83 | 3.0 | 3.0 | 0.00 | 0.00 | 0.00 | 66 | 1016.7 |
| 20260902050523 | 86 | 119 | 3.0 | 4.0 | 0.00 | 0.00 | 0.00 | 65 | 1016.9 |
| 20260902050018 | 86 | 120 | 3.0 | 6.0 | 0.00 | 0.00 | 0.00 | 65 | 1016.7 |
| 20260902045513 | 86 | 164 | 4.0 | 6.0 | 0.00 | 0.00 | 0.00 | 64 | 1016.6 |
| 20260902045010 | 86 | 131 | 8.0 | 9.0 | 0.00 | 0.00 | 0.00 | 64 | 1016.8 |
| 20260902044504 | 86 | 107 | 4.0 | 4.0 | 0.00 | 0.00 | 0.00 | 64 | 1016.7 |
| 20260902044000 | 86 | 139 | 4.0 | 4.0 | 0.00 | 0.00 | 0.00 | 63 | 1016.8 |
| 20260902043455 | 87 | 125 | 4.0 | 4.0 | 0.00 | 0.00 | 0.00 | 63 | 1017.0 |
| 20260902042950 | 87 | 99 | 6.0 | 7.0 | 0.00 | 0.00 | 0.00 | 63 | 1017.0 |
| 20260902042449 | 87 | 99 | 1.0 | 2.0 | 0.00 | 0.00 | 0.00 | 62 | 1017.0 |
| 20260902041944 | 87 | 88 | 4.0 | 6.0 | 0.00 | 0.00 | 0.00 | 61 | 1016.9 |
| 20260902041438 | 87 | 123 | 2.0 | 3.0 | 0.00 | 0.00 | 0.00 | 62 | 1016.7 |
| 20260902040938 | 87 | 122 | 5.0 | 6.0 | 0.00 | 0.00 | 0.00 | 61 | 1016.6 |
| 20260902040428 | 87 | 113 | 3.0 | 4.0 | 0.00 | 0.00 | 0.00 | 61 | 1016.7 |
| 20260902035926 | 88 | 141 | 5.0 | 7.0 | 0.00 | 0.00 | 0.00 | 60 | 1016.6 |
| 20260902035421 | 88 | 89 | 4.0 | 6.0 | 0.00 | 0.00 | 0.00 | 60 | 1016.7 |
| 20260902034920 | 88 | 132 | 2.0 | 3.0 | 0.00 | 0.00 | 0.00 | 60 | 1016.6 |
| 20260902034415 | 88 | 143 | 4.0 | 4.0 | 0.00 | 0.00 | 0.00 | 60 | 1016.5 |
| 20260902033915 | 88 | 169 | 3.0 | 4.0 | 0.00 | 0.00 | 0.00 | 60 | 1016.5 |
| 20260902033409 | 88 | 129 | 2.0 | 2.0 | 0.00 | 0.00 | 0.00 | 59 | 1016.2 |
| 20260902032908 | 89 | 123 | 2.0 | 2.0 | 0.00 | 0.00 | 0.00 | 59 | 1016.4 |
| 20260902032403 | 88 | 163 | 2.0 | 2.0 | 0.00 | 0.00 | 0.00 | 59 | 1016.3 |
| 20260902031903 | 89 | 136 | 2.0 | 2.0 | 0.00 | 0.00 | 0.00 | 59 | 1016.2 |
| 20260902031359 | 89 | 144 | 4.0 | 4.0 | 0.00 | 0.00 | 0.00 | 58 | 1016.3 |
| 20260902030854 | 89 | 170 | 4.0 | 4.0 | 0.00 | 0.00 | 0.00 | 58 | 1016.3 |
| 20260902030348 | 89 | 123 | 3.0 | 3.0 | 0.00 | 0.00 | 0.00 | 58 | 1016.2 |
| 20260902025847 | 89 | 103 | 2.0 | 2.0 | 0.00 | 0.00 | 0.00 | 57 | 1016.1 |
| 20260902025343 | 89 | 123 | 4.0 | 7.0 | 0.00 | 0.00 | 0.00 | 57 | 1015.8 |
| 20260902024838 | 89 | 101 | 3.0 | 3.0 | 0.00 | 0.00 | 0.00 | 57 | 1015.4 |
| 20260902024334 | 89 | 103 | 4.0 | 4.0 | 0.00 | 0.00 | 0.00 | 56 | 1015.4 |
| 20260902023829 | 89 | 90 | 4.0 | 4.0 | 0.00 | 0.00 | 0.00 | 56 | 1015.6 |
| 20260902023324 | 89 | 124 | 2.0 | 3.0 | 0.00 | 0.00 | 0.00 | 56 | 1015.4 |
| 20260902022823 | 90 | 116 | 6.0 | 7.0 | 0.00 | 0.00 | 0.00 | 55 | 1015.4 |
| 20260902022318 | 90 | 116 | 5.0 | 7.0 | 0.00 | 0.00 | 0.00 | 55 | 1015.4 |
| 20260902021814 | 90 | 132 | 4.0 | 6.0 | 0.00 | 0.00 | 0.00 | 54 | 1015.3 |
| 20260902021309 | 90 | 71 | 4.0 | 6.0 | 0.00 | 0.00 | 0.00 | 54 | 1015.1 |
| 20260902020805 | 90 | 101 | 5.0 | 9.0 | 0.00 | 0.00 | 0.00 | 53 | 1015.3 |
| 20260902020301 | 90 | 95 | 3.0 | 3.0 | 0.00 | 0.00 | 0.00 | 53 | 1015.2 |
| 20260902015756 | 90 | 75 | 3.0 | 4.0 | 0.00 | 0.00 | 0.00 | 53 | 1014.9 |
| 20260902015253 | 91 | 77 | 4.0 | 4.0 | 0.00 | 0.00 | 0.00 | 52 | 1014.9 |
| 20260902014748 | 91 | 122 | 2.0 | 3.0 | 0.00 | 0.00 | 0.00 | 52 | 1014.9 |
| 20260902014244 | 91 | 61 | 4.0 | 4.0 | 0.00 | 0.00 | 0.00 | 52 | 1014.7 |
| 20260902013743 | 91 | 48 | 5.0 | 6.0 | 0.00 | 0.00 | 0.00 | 51 | 1014.6 |
| 20260902013238 | 91 | 17 | 2.0 | 4.0 | 0.00 | 0.00 | 0.00 | 51 | 1014.6 |
| 20260902012733 | 92 | 75 | 7.0 | 9.0 | 0.00 | 0.00 | 0.00 | 50 | 1014.6 |
| 20260902012230 | 92 | 97 | 4.0 | 6.0 | 0.00 | 0.00 | 0.00 | 49 | 1014.5 |
| 20260902011724 | 92 | 82 | 5.0 | 8.0 | 0.00 | 0.00 | 0.00 | 49 | 1014.6 |
| 20260902011223 | 92 | 89 | 4.0 | 6.0 | 0.00 | 0.00 | 0.00 | 48 | 1014.5 |
| 20260902010718 | 93 | 97 | 2.0 | 3.0 | 0.00 | 0.00 | 0.00 | 46 | 1014.6 |
| 20260902010214 | 93 | 135 | 1.0 | 1.0 | 0.00 | 0.00 | 0.00 | 46 | 1014.5 |
| 20260902005712 | 93 | 92 | 4.0 | 7.0 | 0.00 | 0.00 | 0.00 | 45 | 1014.4 |
| 20260902005208 | 93 | 91 | 3.0 | 4.0 | 0.00 | 0.00 | 0.00 | 45 | 1014.4 |
| 20260902004708 | 94 | 41 | 3.0 | 4.0 | 0.00 | 0.00 | 0.00 | 45 | 1014.5 |
| 20260902004202 | 94 | 68 | 1.0 | 2.0 | 0.00 | 0.00 | 0.00 | 45 | 1014.5 |
| 20260902003652 | 94 | 98 | 5.0 | 6.0 | 0.00 | 0.00 | 0.00 | 45 | 1014.6 |
| 20260902003147 | 95 | 84 | 6.0 | 8.0 | 0.00 | 0.00 | 0.00 | 45 | 1014.7 |
| 20260902002643 | 95 | 61 | 4.0 | 6.0 | 0.00 | 0.00 | 0.00 | 45 | 1014.6 |
| 20260902002142 | 95 | 64 | 2.0 | 3.0 | 0.00 | 0.00 | 0.00 | 45 | 1014.7 |
| 20260902001638 | 95 | 66 | 2.0 | 4.0 | 0.00 | 0.00 | 0.00 | 45 | 1014.4 |
| 20260902001132 | 95 | 41 | 3.0 | 3.0 | 0.00 | 0.00 | 0.00 | 45 | 1014.6 |
| 20260902000627 | 95 | 76 | 6.0 | 10.0 | 0.00 | 0.00 | 0.00 | 44 | 1014.6 |
| 20260902000122 | 96 | 46 | 7.0 | 9.0 | 0.00 | 0.00 | 0.00 | 44 | 1014.4 |
| 20260901235622 | 96 | 51 | 5.0 | 9.0 | 0.00 | 0.00 | 0.00 | 43 | 1014.5 |
| 20260901235118 | 96 | 94 | 5.0 | 7.0 | 0.00 | 0.00 | 0.00 | 40 | 1014.5 |
| 20260901234616 | 96 | 92 | 2.0 | 3.0 | 0.00 | 0.00 | 0.00 | 40 | 1014.4 |
| 20260901234112 | 96 | 65 | 2.0 | 4.0 | 0.00 | 0.00 | 0.00 | 41 | 1014.3 |
| 20260901233607 | 96 | 36 | 8.0 | 10.0 | 0.00 | 0.00 | 0.00 | 41 | 1014.4 |
| 20260901233103 | 96 | 57 | 4.0 | 7.0 | 0.00 | 0.00 | 0.00 | 41 | 1014.4 |
| 20260901232557 | 96 | 42 | 3.0 | 4.0 | 0.00 | 0.00 | 0.00 | 41 | 1014.5 |
| 20260901232058 | 97 | 70 | 4.0 | 7.0 | 0.00 | 0.00 | 0.00 | 41 | 1014.3 |
| 20260901231554 | 97 | 103 | 3.0 | 4.0 | 0.00 | 0.00 | 0.00 | 43 | 1014.4 |
| 20260901231050 | 97 | 62 | 3.0 | 4.0 | 0.00 | 0.00 | 0.00 | 43 | 1014.4 |
| 20260901230546 | 97 | 35 | 4.0 | 4.0 | 0.00 | 0.00 | 0.00 | 43 | 1014.5 |
| 20260901230040 | 97 | 35 | 2.0 | 3.0 | 0.00 | 0.00 | 0.00 | 43 | 1014.6 |
| 20260901225535 | 98 | 52 | 7.0 | 9.0 | 0.00 | 0.00 | 0.00 | 42 | 1014.6 |
| 20260901225035 | 98 | 17 | 4.0 | 6.0 | 0.00 | 0.00 | 0.00 | 42 | 1014.6 |
| 20260901224531 | 97 | 34 | 5.0 | 8.0 | 0.00 | 0.00 | 0.00 | 42 | 1014.5 |
| 20260901224027 | 97 | 62 | 3.0 | 6.0 | 0.00 | 0.00 | 0.00 | 43 | 1014.5 |
| 20260901223522 | 97 | 139 | 3.0 | 6.0 | 0.00 | 0.00 | 0.00 | 43 | 1014.4 |
| 20260901223018 | 97 | 50 | 6.0 | 7.0 | 0.00 | 0.00 | 0.00 | 43 | 1014.6 |
| 20260901222514 | 97 | 81 | 7.0 | 7.0 | 0.00 | 0.00 | 0.00 | 43 | 1014.5 |
| 20260901222009 | 97 | 98 | 6.0 | 8.0 | 0.00 | 0.00 | 0.00 | 43 | 1014.4 |
| 20260901221505 | 97 | 63 | 7.0 | 8.0 | 0.00 | 0.00 | 0.00 | 43 | 1014.6 |
| 20260901221001 | 98 | 81 | 6.0 | 8.0 | 0.00 | 0.00 | 0.00 | 42 | 1014.5 |
| 20260901220500 | 97 | 27 | 5.0 | 7.0 | 0.00 | 0.00 | 0.00 | 42 | 1014.8 |
| 20260901215958 | 97 | 19 | 3.0 | 3.0 | 0.00 | 0.00 | 0.00 | 43 | 1014.7 |
| 20260901215457 | 97 | 52 | 0.0 | 1.0 | 0.00 | 0.00 | 0.00 | 44 | 1014.7 |
| 20260901214956 | 98 | 65 | 5.0 | 7.0 | 0.00 | 0.00 | 0.00 | 42 | 1014.6 |
| 20260901214455 | 97 | 142 | 4.0 | 7.0 | 0.00 | 0.00 | 0.00 | 42 | 1014.5 |
| 20260901213950 | 96 | 143 | 4.0 | 6.0 | 0.00 | 0.00 | 0.00 | 42 | 1014.8 |
| 20260901213444 | 95 | 143 | 0.0 | 2.0 | 0.00 | 0.00 | 0.00 | 44 | 1014.8 |
| 20260901212943 | 95 | 102 | 4.0 | 6.0 | 0.00 | 0.00 | 0.00 | 44 | 1014.7 |
| 20260901212439 | 96 | 69 | 2.0 | 3.0 | 0.00 | 0.00 | 0.00 | 45 | 1014.9 |
| 20260901211936 | 97 | 13 | 3.0 | 4.0 | 0.00 | 0.00 | 0.00 | 44 | 1014.7 |
| 20260901211431 | 98 | 273 | 0.0 | 0.0 | 0.00 | 0.00 | 0.00 | 44 | 1015.1 |
| 20260901210927 | 96 | 94 | 5.0 | 8.0 | 0.00 | 0.00 | 0.00 | 44 | 1014.9 |
| 20260901210423 | 98 | 63 | 1.0 | 2.0 | 0.00 | 0.00 | 0.00 | 45 | 1014.9 |
| 20260901205919 | 97 | 256 | 0.0 | 0.0 | 0.00 | 0.00 | 0.00 | 44 | 1015.0 |
| 20260901205413 | 96 | 98 | 6.0 | 7.0 | 0.00 | 0.00 | 0.00 | 46 | 1015.3 |
| 20260901204908 | 96 | 47 | 0.0 | 0.0 | 0.00 | 0.00 | 0.00 | 45 | 1015.3 |
| 20260901204405 | 95 | 62 | 4.0 | 6.0 | 0.00 | 0.00 | 0.00 | 47 | 1015.4 |
| 20260901203904 | 95 | 38 | 2.0 | 4.0 | 0.00 | 0.00 | 0.00 | 47 | 1015.4 |
| 20260901203358 | 96 | 7 | 7.0 | 8.0 | 0.00 | 0.00 | 0.00 | 45 | 1015.7 |
| 20260901202853 | 96 | 82 | 6.0 | 9.0 | 0.00 | 0.00 | 0.00 | 45 | 1015.4 |
| 20260901202348 | 95 | 14 | 0.0 | 0.0 | 0.00 | 0.00 | 0.00 | 46 | 1015.5 |
| 20260901201845 | 97 | 30 | 0.0 | 0.0 | 0.00 | 0.00 | 0.00 | 44 | 1015.7 |
| 20260901201344 | 96 | 68 | 0.0 | 0.0 | 0.00 | 0.00 | 0.00 | 45 | 1015.7 |
| 20260901200838 | 96 | 89 | 3.0 | 3.0 | 0.00 | 0.00 | 0.00 | 44 | 1015.9 |
| 20260901200333 | 98 | 47 | 7.0 | 10.0 | 0.00 | 0.00 | 0.00 | 43 | 1015.8 |
| 20260901195832 | 95 | 330 | 0.0 | 0.0 | 0.00 | 0.00 | 0.00 | 46 | 1015.9 |
| 20260901195330 | 95 | 121 | 4.0 | 6.0 | 0.00 | 0.00 | 0.00 | 47 | 1016.1 |
| 20260901194826 | 95 | 72 | 5.0 | 8.0 | 0.00 | 0.00 | 0.00 | 47 | 1016.2 |
| 20260901194321 | 94 | 176 | 2.0 | 2.0 | 0.00 | 0.00 | 0.00 | 47 | 1016.2 |
| 20260901193818 | 95 | 97 | 2.0 | 3.0 | 0.00 | 0.00 | 0.00 | 47 | 1016.0 |
| 20260901193316 | 96 | 98 | 2.0 | 3.0 | 0.00 | 0.00 | 0.00 | 47 | 1016.4 |
| 20260901192811 | 95 | 58 | 1.0 | 1.0 | 0.00 | 0.00 | 0.00 | 47 | 1016.5 |
| 20260901192306 | 95 | 82 | 6.0 | 7.0 | 0.00 | 0.00 | 0.00 | 46 | 1016.5 |
| 20260901191803 | 95 | 80 | 8.0 | 10.0 | 0.00 | 0.00 | 0.00 | 47 | 1016.5 |
| 20260901191258 | 95 | 113 | 4.0 | 6.0 | 0.00 | 0.00 | 0.00 | 48 | 1016.5 |
| 20260901190754 | 95 | 17 | 2.0 | 3.0 | 0.00 | 0.00 | 0.00 | 47 | 1016.5 |
| 20260901190253 | 96 | 89 | 2.0 | 3.0 | 0.00 | 0.00 | 0.00 | 48 | 1016.7 |
| 20260901185752 | 96 | 87 | 5.0 | 8.0 | 0.00 | 0.00 | 0.00 | 48 | 1016.7 |
| 20260901185251 | 94 | 318 | 1.0 | 2.0 | 0.00 | 0.00 | 0.00 | 48 | 1016.7 |
| 20260901184747 | 94 | 76 | 2.0 | 3.0 | 0.00 | 0.00 | 0.00 | 49 | 1016.8 |
| 20260901184242 | 95 | 78 | 2.0 | 3.0 | 0.00 | 0.00 | 0.00 | 49 | 1017.0 |
| 20260901183738 | 93 | 161 | 5.0 | 7.0 | 0.00 | 0.00 | 0.00 | 49 | 1017.1 |
| 20260901183237 | 94 | 89 | 1.0 | 2.0 | 0.00 | 0.00 | 0.00 | 49 | 1017.2 |
| 20260901182733 | 93 | 145 | 3.0 | 4.0 | 0.00 | 0.00 | 0.00 | 48 | 1017.0 |
| 20260901182232 | 93 | 20 | 1.0 | 2.0 | 0.00 | 0.00 | 0.00 | 51 | 1017.4 |
| 20260901181727 | 93 | 36 | 3.0 | 3.0 | 0.00 | 0.00 | 0.00 | 51 | 1017.4 |
| 20260901181222 | 93 | 91 | 3.0 | 3.0 | 0.00 | 0.00 | 0.00 | 52 | 1017.6 |
| 20260901180721 | 93 | 204 | 1.0 | 2.0 | 0.00 | 0.00 | 0.00 | 51 | 1017.6 |
| 20260901180220 | 92 | 64 | 0.0 | 1.0 | 0.00 | 0.00 | 0.00 | 52 | 1017.7 |
| 20260901175719 | 94 | 69 | 9.0 | 11.0 | 0.00 | 0.00 | 0.00 | 51 | 1017.7 |
| 20260901175215 | 93 | 120 | 2.0 | 2.0 | 0.00 | 0.00 | 0.00 | 53 | 1017.8 |
| 20260901174710 | 93 | 129 | 5.0 | 7.0 | 0.00 | 0.00 | 0.00 | 51 | 1017.9 |
| 20260901174206 | 92 | 4 | 2.0 | 3.0 | 0.00 | 0.00 | 0.00 | 52 | 1018.2 |
| 20260901173701 | 92 | 123 | 2.0 | 2.0 | 0.00 | 0.00 | 0.00 | 53 | 1017.8 |
| 20260901173156 | 92 | 314 | 1.0 | 1.0 | 0.00 | 0.00 | 0.00 | 52 | 1018.1 |
| 20260901172652 | 91 | 91 | 1.0 | 1.0 | 0.00 | 0.00 | 0.00 | 53 | 1018.2 |
| 20260901172149 | 91 | 80 | 4.0 | 7.0 | 0.00 | 0.00 | 0.00 | 53 | 1018.4 |
| 20260901171643 | 92 | 64 | 4.0 | 9.0 | 0.00 | 0.00 | 0.00 | 55 | 1018.4 |
| 20260901171137 | 92 | 42 | 2.0 | 3.0 | 0.00 | 0.00 | 0.00 | 53 | 1018.3 |
| 20260901170637 | 92 | 170 | 2.0 | 3.0 | 0.00 | 0.00 | 0.00 | 54 | 1018.5 |
| 20260901170132 | 92 | 7 | 0.0 | 0.0 | 0.00 | 0.00 | 0.00 | 55 | 1018.4 |
| 20260901165631 | 90 | 28 | 2.0 | 3.0 | 0.00 | 0.00 | 0.00 | 57 | 1018.7 |
| 20260901165126 | 90 | 90 | 2.0 | 3.0 | 0.00 | 0.00 | 0.00 | 58 | 1018.8 |
| 20260901164622 | 92 | 79 | 3.0 | 3.0 | 0.00 | 0.00 | 0.00 | 55 | 1018.7 |
| 20260901164117 | 91 | 58 | 3.0 | 3.0 | 0.00 | 0.00 | 0.00 | 56 | 1018.8 |
| 20260901163613 | 90 | 129 | 3.0 | 4.0 | 0.00 | 0.00 | 0.00 | 57 | 1018.7 |
| 20260901163111 | 91 | 29 | 2.0 | 3.0 | 0.00 | 0.00 | 0.00 | 56 | 1018.5 |
| 20260901162606 | 89 | 65 | 5.0 | 7.0 | 0.00 | 0.00 | 0.00 | 58 | 1018.8 |
| 20260901162100 | 90 | 106 | 3.0 | 4.0 | 0.00 | 0.00 | 0.00 | 58 | 1018.9 |
| 20260901161559 | 89 | 268 | 0.0 | 0.0 | 0.00 | 0.00 | 0.00 | 59 | 1018.9 |
| 20260901161059 | 90 | 86 | 6.0 | 7.0 | 0.00 | 0.00 | 0.00 | 60 | 1018.7 |
| 20260901160555 | 90 | 213 | 1.0 | 2.0 | 0.00 | 0.00 | 0.00 | 60 | 1018.8 |
| 20260901160050 | 89 | 250 | 1.0 | 1.0 | 0.00 | 0.00 | 0.00 | 62 | 1018.9 |
| 20260901155549 | 89 | 356 | 2.0 | 3.0 | 0.00 | 0.00 | 0.00 | 63 | 1018.9 |
| 20260901155044 | 89 | 68 | 2.0 | 3.0 | 0.00 | 0.00 | 0.00 | 65 | 1018.9 |
| 20260901154539 | 88 | 243 | 1.0 | 1.0 | 0.00 | 0.00 | 0.00 | 64 | 1019.0 |
| 20260901154034 | 87 | 184 | 0.0 | 0.0 | 0.00 | 0.00 | 0.00 | 67 | 1018.9 |
| 20260901153528 | 89 | 85 | 1.0 | 2.0 | 0.00 | 0.00 | 0.00 | 65 | 1018.8 |
| 20260901153022 | 88 | 222 | 0.0 | 1.0 | 0.00 | 0.00 | 0.00 | 65 | 1018.9 |
| 20260901152517 | 87 | 113 | 0.0 | 1.0 | 0.00 | 0.00 | 0.00 | 67 | 1018.8 |
| 20260901152016 | 87 | 113 | 0.0 | 1.0 | 0.00 | 0.00 | 0.00 | 69 | 1018.9 |
| 20260901151512 | 86 | 269 | 2.0 | 2.0 | 0.00 | 0.00 | 0.00 | 68 | 1018.8 |
| 20260901151011 | 86 | 285 | 1.0 | 1.0 | 0.00 | 0.00 | 0.00 | 71 | 1018.7 |
| 20260901150509 | 85 | 234 | 2.0 | 2.0 | 0.00 | 0.00 | 0.00 | 72 | 1018.8 |
| 20260901150008 | 85 | 337 | 0.0 | 0.0 | 0.00 | 0.00 | 0.00 | 73 | 1018.7 |
| 20260901145501 | 85 | 312 | 2.0 | 3.0 | 0.00 | 0.00 | 0.00 | 74 | 1018.7 |
| 20260901145001 | 84 | 144 | 2.0 | 3.0 | 0.00 | 0.00 | 0.00 | 73 | 1018.8 |
| 20260901144456 | 84 | 261 | 2.0 | 2.0 | 0.00 | 0.00 | 0.00 | 76 | 1019.0 |
| 20260901143951 | 85 | 258 | 2.0 | 2.0 | 0.00 | 0.00 | 0.00 | 74 | 1019.0 |
| 20260901143447 | 84 | 235 | 2.0 | 2.0 | 0.00 | 0.00 | 0.00 | 77 | 1019.0 |
| 20260901142944 | 83 | 311 | 2.0 | 3.0 | 0.00 | 0.00 | 0.00 | 78 | 1019.1 |
| 20260901142438 | 83 | 291 | 4.0 | 4.0 | 0.00 | 0.00 | 0.00 | 79 | 1019.0 |
| 20260901141933 | 82 | 289 | 3.0 | 3.0 | 0.00 | 0.00 | 0.00 | 79 | 1019.2 |
| 20260901141427 | 82 | 235 | 0.0 | 1.0 | 0.00 | 0.00 | 0.00 | 80 | 1019.1 |
| 20260901140922 | 82 | 257 | 1.0 | 2.0 | 0.00 | 0.00 | 0.00 | 80 | 1019.2 |
| 20260901140420 | 82 | 275 | 2.0 | 2.0 | 0.00 | 0.00 | 0.00 | 80 | 1019.4 |
| 20260901135914 | 82 | 260 | 4.0 | 4.0 | 0.00 | 0.00 | 0.00 | 81 | 1019.2 |
| 20260901135409 | 82 | 260 | 2.0 | 2.0 | 0.00 | 0.00 | 0.00 | 81 | 1019.2 |
| 20260901134905 | 83 | 290 | 2.0 | 3.0 | 0.00 | 0.00 | 0.00 | 80 | 1019.2 |
| 20260901134400 | 84 | 11 | 0.0 | 0.0 | 0.00 | 0.00 | 0.00 | 78 | 1019.3 |
| 20260901133854 | 84 | 11 | 0.0 | 0.0 | 0.00 | 0.00 | 0.00 | 78 | 1019.2 |
| 20260901133354 | 82 | 319 | 0.0 | 0.0 | 0.00 | 0.00 | 0.00 | 81 | 1019.1 |
| 20260901132853 | 83 | 76 | 0.0 | 0.0 | 0.00 | 0.00 | 0.00 | 79 | 1019.1 |
| 20260901132348 | 83 | 76 | 0.0 | 0.0 | 0.00 | 0.00 | 0.00 | 80 | 1019.0 |
| 20260901131847 | 82 | 77 | 0.0 | 0.0 | 0.00 | 0.00 | 0.00 | 82 | 1019.0 |
| 20260901131346 | 81 | 320 | 0.0 | 0.0 | 0.00 | 0.00 | 0.00 | 84 | 1019.0 |
| 20260901130842 | 80 | 149 | 1.0 | 1.0 | 0.00 | 0.00 | 0.00 | 85 | 1018.8 |
| 20260901130337 | 80 | 192 | 0.0 | 0.0 | 0.00 | 0.00 | 0.00 | 85 | 1018.8 |
| 20260901125835 | 79 | 154 | 1.0 | 2.0 | 0.00 | 0.00 | 0.00 | 86 | 1018.5 |
| 20260901125334 | 79 | 207 | 0.0 | 0.0 | 0.00 | 0.00 | 0.00 | 87 | 1018.7 |
| 20260901124829 | 78 | 207 | 0.0 | 0.0 | 0.00 | 0.00 | 0.00 | 88 | 1018.6 |
| 20260901124324 | 78 | 207 | 0.0 | 0.0 | 0.00 | 0.00 | 0.00 | 88 | 1018.3 |
| 20260901123824 | 78 | 207 | 0.0 | 0.0 | 0.00 | 0.00 | 0.00 | 89 | 1018.5 |
| 20260901123319 | 78 | 206 | 0.0 | 0.0 | 0.00 | 0.00 | 0.00 | 89 | 1018.5 |
| 20260901122817 | 78 | 201 | 0.0 | 0.0 | 0.00 | 0.00 | 0.00 | 90 | 1018.4 |
| 20260901122312 | 77 | 221 | 0.0 | 0.0 | 0.00 | 0.00 | 0.00 | 90 | 1018.3 |
| 20260901121811 | 77 | 221 | 0.0 | 0.0 | 0.00 | 0.00 | 0.00 | 90 | 1018.2 |
| 20260901121307 | 77 | 221 | 0.0 | 0.0 | 0.00 | 0.00 | 0.00 | 90 | 1017.9 |
| 20260901120806 | 78 | 226 | 0.0 | 0.0 | 0.00 | 0.00 | 0.00 | 90 | 1018.1 |
| 20260901120301 | 77 | 222 | 0.0 | 1.0 | 0.00 | 0.00 | 0.00 | 90 | 1017.9 |
| 20260901115757 | 78 | 247 | 0.0 | 0.0 | 0.00 | 0.00 | 0.00 | 90 | 1018.1 |
| 20260901115252 | 78 | 229 | 0.0 | 1.0 | 0.00 | 0.00 | 0.00 | 89 | 1017.9 |
| 20260901114749 | 78 | 237 | 1.0 | 1.0 | 0.00 | 0.00 | 0.00 | 89 | 1018.1 |
| 20260901114245 | 78 | 206 | 1.0 | 1.0 | 0.00 | 0.00 | 0.00 | 89 | 1018.3 |
| 20260901113742 | 78 | 196 | 1.0 | 1.0 | 0.00 | 0.00 | 0.00 | 89 | 1018.1 |
| 20260901113237 | 78 | 236 | 0.0 | 1.0 | 0.00 | 0.00 | 0.00 | 89 | 1018.1 |
| 20260901112732 | 78 | 198 | 1.0 | 1.0 | 0.00 | 0.00 | 0.00 | 88 | 1018.2 |
| 20260901112232 | 78 | 189 | 1.0 | 1.0 | 0.00 | 0.00 | 0.00 | 88 | 1018.2 |
| 20260901111727 | 78 | 191 | 2.0 | 2.0 | 0.00 | 0.00 | 0.00 | 88 | 1018.1 |
| 20260901111226 | 78 | 234 | 2.0 | 2.0 | 0.00 | 0.00 | 0.00 | 88 | 1018.1 |
| 20260901110720 | 78 | 206 | 1.0 | 1.0 | 0.00 | 0.00 | 0.00 | 88 | 1018.3 |
| 20260901110215 | 78 | 232 | 1.0 | 1.0 | 0.00 | 0.00 | 0.00 | 88 | 1018.1 |
| 20260901105712 | 78 | 196 | 2.0 | 2.0 | 0.00 | 0.00 | 0.00 | 87 | 1017.9 |
| 20260901105211 | 79 | 201 | 3.0 | 3.0 | 0.00 | 0.00 | 0.00 | 87 | 1018.2 |
| 20260901104708 | 79 | 241 | 3.0 | 4.0 | 0.00 | 0.00 | 0.00 | 87 | 1018.1 |